TimeCDT,TemperatureF,Dew PointF,Humidity,Sea Level PressureIn,VisibilityMPH,Wind Direction,Wind SpeedMPH,Gust SpeedMPH,PrecipitationIn,Events,Conditions,WindDirDegrees,DateUTC
12:15 AM,50.0,49.5,98,30.22,5.0,Calm,Calm,-,N/A,,Clear,0,2013-08-17 05:15:00
12:35 AM,49.6,49.3,99,30.22,7.0,Calm,Calm,-,N/A,,Clear,0,2013-08-17 05:35:00
12:55 AM,48.7,48.4,99,30.22,5.0,Calm,Calm,-,N/A,,Clear,0,2013-08-17 05:55:00
1:15 AM,48.2,47.8,99,30.22,5.0,Calm,Calm,-,N/A,,Clear,0,2013-08-17 06:15:00
1:35 AM,47.5,47.1,99,30.22,5.0,Calm,Calm,-,N/A,,Clear,0,2013-08-17 06:35:00
1:55 AM,47.5,47.3,99,30.22,4.0,Calm,Calm,-,N/A,,Clear,0,2013-08-17 06:55:00
2:15 AM,46.9,46.6,99,30.22,7.0,Calm,Calm,-,N/A,,Clear,0,2013-08-17 07:15:00
2:35 AM,46.4,45.9,98,30.22,5.0,Calm,Calm,-,N/A,,Clear,0,2013-08-17 07:35:00
2:55 AM,46.4,45.9,98,30.22,7.0,Calm,Calm,-,N/A,,Clear,0,2013-08-17 07:55:00
3:15 AM,45.7,45.3,99,30.23,5.0,Calm,Calm,-,N/A,,Clear,0,2013-08-17 08:15:00
3:35 AM,45.7,45.3,99,30.23,5.0,Calm,Calm,-,N/A,,Clear,0,2013-08-17 08:35:00
3:55 AM,45.3,45.0,99,30.23,5.0,Calm,Calm,-,N/A,,Clear,0,2013-08-17 08:55:00
4:15 AM,45.3,45.0,99,30.23,5.0,Calm,Calm,-,N/A,,Clear,0,2013-08-17 09:15:00
4:35 AM,44.8,44.6,99,30.23,7.0,Calm,Calm,-,N/A,,Clear,0,2013-08-17 09:35:00
4:55 AM,45.1,44.8,99,30.23,3.0,Calm,Calm,-,N/A,,Mist,0,2013-08-17 09:55:00
5:15 AM,45.5,45.0,98,30.24,5.0,Calm,Calm,-,N/A,,Clear,0,2013-08-17 10:15:00
5:35 AM,44.6,44.1,98,30.24,4.0,Calm,Calm,-,N/A,,Scattered Clouds,0,2013-08-17 10:35:00
5:55 AM,45.5,45.1,99,30.25,0.2,Calm,Calm,-,N/A,Fog,Fog,0,2013-08-17 10:55:00
6:15 AM,44.4,44.1,99,30.25,0.2,Calm,Calm,-,N/A,Fog,Fog,0,2013-08-17 11:15:00
6:35 AM,45.7,45.5,99,30.25,0.2,Calm,Calm,-,N/A,Fog,Fog,0,2013-08-17 11:35:00
6:55 AM,48.2,47.8,99,30.25,4.0,Calm,Calm,-,N/A,,Clear,0,2013-08-17 11:55:00
7:15 AM,49.1,49.1,100,30.25,3.0,Calm,Calm,-,N/A,,Clear,0,2013-08-17 12:15:00
7:35 AM,52.7,52.7,100,30.25,7.0,Calm,Calm,-,N/A,,Clear,0,2013-08-17 12:35:00
7:55 AM,55.9,55.9,100,30.25,7.0,Calm,Calm,-,N/A,,Clear,0,2013-08-17 12:55:00
8:15 AM,59.0,58.8,99,30.26,10.0,Calm,Calm,-,N/A,,Clear,0,2013-08-17 13:15:00
8:35 AM,62.2,57.2,84,30.26,10.0,Calm,Calm,-,N/A,,Clear,0,2013-08-17 13:35:00
8:55 AM,65.7,57.7,76,30.26,10.0,Calm,Calm,-,N/A,,Clear,0,2013-08-17 13:55:00
9:15 AM,68.2,56.8,67,30.26,10.0,Calm,Calm,-,N/A,,Clear,0,2013-08-17 14:15:00
9:35 AM,70.2,56.1,61,30.26,10.0,West,3.5,-,N/A,,Clear,260,2013-08-17 14:35:00
9:55 AM,71.6,55.6,57,30.26,10.0,WSW,3.5,-,N/A,,Clear,240,2013-08-17 14:55:00
10:15 AM,72.9,54.1,52,30.25,10.0,West,5.8,-,N/A,,Clear,260,2013-08-17 15:15:00
10:35 AM,73.4,51.8,47,30.25,10.0,SW,4.6,-,N/A,,Clear,220,2013-08-17 15:35:00
10:55 AM,73.8,50.7,44,30.25,10.0,SW,10.4,-,N/A,,Clear,220,2013-08-17 15:55:00
11:15 AM,74.3,51.1,44,30.25,10.0,West,8.1,-,N/A,,Clear,260,2013-08-17 16:15:00
11:35 AM,75.2,51.4,43,30.24,10.0,West,5.8,-,N/A,,Scattered Clouds,270,2013-08-17 16:35:00
11:55 AM,74.8,50.4,42,30.24,10.0,WSW,8.1,-,N/A,,Scattered Clouds,240,2013-08-17 16:55:00
12:15 PM,76.3,49.8,39,30.24,10.0,WSW,5.8,-,N/A,,Scattered Clouds,250,2013-08-17 17:15:00
12:35 PM,76.1,52.2,43,30.23,10.0,WSW,6.9,-,N/A,,Scattered Clouds,240,2013-08-17 17:35:00
12:55 PM,76.1,51.1,41,30.22,10.0,WSW,8.1,-,N/A,,Scattered Clouds,240,2013-08-17 17:55:00
1:15 PM,76.8,51.4,41,30.22,10.0,West,8.1,-,N/A,,Scattered Clouds,260,2013-08-17 18:15:00
1:35 PM,75.0,51.8,44,30.22,10.0,WSW,4.6,-,N/A,,Scattered Clouds,250,2013-08-17 18:35:00
1:55 PM,75.9,51.8,43,30.21,10.0,West,4.6,-,N/A,,Mostly Cloudy,260,2013-08-17 18:55:00
2:15 PM,76.5,51.1,41,30.21,10.0,West,8.1,-,N/A,,Scattered Clouds,260,2013-08-17 19:15:00
2:35 PM,77.9,51.4,40,30.20,10.0,West,6.9,-,N/A,,Scattered Clouds,260,2013-08-17 19:35:00
2:55 PM,78.3,50.0,37,30.20,10.0,SSW,10.4,16.1,N/A,,Scattered Clouds,200,2013-08-17 19:55:00
3:15 PM,77.9,49.5,37,30.19,10.0,WSW,4.6,-,N/A,,Clear,250,2013-08-17 20:15:00
3:35 PM,78.4,49.8,37,30.19,10.0,SW,8.1,-,N/A,,Clear,220,2013-08-17 20:35:00
3:55 PM,78.8,50.5,37,30.19,10.0,WSW,8.1,-,N/A,,Clear,240,2013-08-17 20:55:00
4:15 PM,78.6,51.3,38,30.18,10.0,SSW,6.9,-,N/A,,Clear,210,2013-08-17 21:15:00
4:35 PM,78.4,50.7,38,30.18,10.0,SSW,5.8,-,N/A,,Clear,210,2013-08-17 21:35:00
4:55 PM,78.1,51.1,39,30.17,10.0,WSW,6.9,-,N/A,,Clear,240,2013-08-17 21:55:00
5:15 PM,77.7,51.1,39,30.17,10.0,SW,5.8,-,N/A,,Clear,220,2013-08-17 22:15:00
5:35 PM,77.7,51.4,40,30.17,10.0,SW,6.9,-,N/A,,Clear,220,2013-08-17 22:35:00
5:55 PM,77.0,52.0,42,30.17,10.0,WSW,5.8,-,N/A,,Clear,240,2013-08-17 22:55:00
6:15 PM,76.6,52.3,43,30.17,10.0,SW,5.8,-,N/A,,Clear,220,2013-08-17 23:15:00
6:35 PM,74.7,52.2,45,30.17,10.0,SSW,5.8,-,N/A,,Clear,200,2013-08-17 23:35:00
6:55 PM,74.7,52.3,46,30.17,10.0,SSW,4.6,-,N/A,,Clear,210,2013-08-17 23:55:00
7:15 PM,73.4,52.2,47,30.16,10.0,SSW,3.5,-,N/A,,Clear,210,2013-08-18 00:15:00
7:35 PM,71.6,52.9,52,30.17,10.0,Calm,Calm,-,N/A,,Clear,0,2013-08-18 00:35:00
7:55 PM,67.1,54.7,64,30.16,10.0,Calm,Calm,-,N/A,,Clear,0,2013-08-18 00:55:00
8:15 PM,63.7,55.6,75,30.16,10.0,Calm,Calm,-,N/A,,Clear,0,2013-08-18 01:15:00
8:35 PM,59.5,55.8,87,30.17,10.0,Calm,Calm,-,N/A,,Clear,0,2013-08-18 01:35:00
8:55 PM,58.3,55.0,89,30.17,10.0,Calm,Calm,-,N/A,,Clear,0,2013-08-18 01:55:00
9:15 PM,56.8,54.0,90,30.18,10.0,Calm,Calm,-,N/A,,Clear,0,2013-08-18 02:15:00
9:35 PM,55.6,53.4,92,30.18,10.0,Calm,Calm,-,N/A,,Clear,0,2013-08-18 02:35:00
9:55 PM,55.0,52.9,92,30.18,10.0,Calm,Calm,-,N/A,,Clear,0,2013-08-18 02:55:00
10:15 PM,54.5,53.2,96,30.19,10.0,Calm,Calm,-,N/A,,Clear,0,2013-08-18 03:15:00
10:35 PM,53.1,52.0,96,30.19,10.0,Calm,Calm,-,N/A,,Clear,0,2013-08-18 03:35:00
10:55 PM,52.9,51.6,95,30.18,10.0,Calm,Calm,-,N/A,,Clear,0,2013-08-18 03:55:00
11:15 PM,51.8,50.7,96,30.18,10.0,Calm,Calm,-,N/A,,Clear,0,2013-08-18 04:15:00
11:35 PM,51.8,50.9,97,30.18,10.0,Calm,Calm,-,N/A,,Clear,0,2013-08-18 04:35:00
11:55 PM,52.2,51.4,97,30.17,7.0,Calm,Calm,-,N/A,,Clear,0,2013-08-18 04:55:00